CW2548 Weather Reports


time (UTC)temp
C
wind
direction
speed
KPH
gust
KPH
rain 1hr
cm
rain 24hr
cm
rain mn
cm
humidity
%
barometer
mb
20260906220246 40 294 9.7 12.9 0.00 0.00 0.00 43 1007.7
20260906215245 38 0.0 0.0 0.00 0.00 0.00 44 1007.8
20260906214245 38 257 1.6 4.8 0.00 0.00 0.00 45 1008.0
20260906213245 39 83 4.8 6.4 0.00 0.00 0.00 44 1008.1
20260906212326 39 154 3.2 6.4 0.00 0.00 0.00 44 1008.4
20260906211246 38 217 4.8 11.3 0.00 0.00 0.00 45 1008.6
20260906210245 38 52 0.0 3.2 0.00 0.00 0.00 44 1008.7
20260906205246 38 75 0.0 1.6 0.00 0.00 0.00 44 1009.0
20260906204246 38 131 0.0 1.6 0.00 0.00 0.00 46 1009.0
20260906203306 37 256 1.6 4.8 0.00 0.00 0.00 47 1009.2
20260906202307 37 133 3.2 6.4 0.00 0.00 0.00 50 1009.1
20260906201246 37 275 3.2 6.4 0.00 0.00 0.00 49 1009.3
20260906200245 37 98 1.6 3.2 0.00 0.00 0.00 50 1009.4
20260906195245 36 269 3.2 6.4 0.00 0.00 0.00 50 1009.5
20260906194306 36 208 4.8 9.7 0.00 0.00 0.00 51 1009.7
20260906193305 36 277 4.8 8.0 0.00 0.00 0.00 52 1009.9
20260906192246 36 302 6.4 9.7 0.00 0.00 0.00 52 1009.9
20260906191246 37 0.0 0.0 0.00 0.00 0.00 52 1010.1
20260906190246 35 93 1.6 3.2 0.00 0.00 0.00 56 1010.3
20260906185246 34 120 0.0 3.2 0.00 0.00 0.00 59 1010.4
20260906184246 34 341 0.0 1.6 0.00 0.00 0.00 61 1010.5
20260906183306 33 0.0 0.0 0.00 0.00 0.00 62 1010.7
20260906182245 33 80 0.0 1.6 0.00 0.00 0.00 62 1010.7
20260906181306 33 0.0 1.6 0.00 0.00 0.00 63 1010.7
20260906180245 33 212 3.2 3.2 0.00 0.00 0.00 65 1010.7
20260906175246 33 260 1.6 1.6 0.00 0.00 0.00 67 1010.6
20260906174305 33 0.0 0.0 0.00 0.00 0.00 69 1010.8
20260906173245 32 294 4.8 8.0 0.00 0.00 0.00 71 1010.9
20260906172245 32 181 4.8 8.0 0.00 0.00 0.00 72 1010.9
20260906171307 32 146 4.8 9.7 0.00 0.00 0.00 73 1011.0
20260906170326 32 119 0.0 6.4 0.00 0.00 0.00 75 1011.0
20260906165246 31 177 4.8 8.0 0.00 0.00 0.00 77 1010.9
20260906164246 31 132 8.0 9.7 0.00 0.00 0.00 78 1010.9
20260906163245 31 138 4.8 6.4 0.00 0.00 0.00 78 1011.0
20260906162246 30 114 8.0 9.7 0.00 0.00 0.00 77 1011.0
20260906161246 31 132 4.8 8.0 0.00 0.00 0.00 77 1011.1
20260906160245 30 130 3.2 6.4 0.00 0.00 0.00 77 1011.2
20260906155246 30 163 4.8 6.4 0.00 0.00 0.00 78 1011.3
20260906154245 30 122 6.4 9.7 0.00 0.00 0.00 79 1011.3
20260906153245 30 111 4.8 8.0 0.00 0.00 0.00 79 1011.2
20260906152245 30 147 8.0 11.3 0.00 0.00 0.00 80 1011.3
20260906151246 30 123 9.7 12.9 0.00 0.00 0.00 81 1011.3
20260906150245 29 170 9.7 12.9 0.00 0.00 0.00 83 1011.3
20260906145245 29 131 9.7 11.3 0.00 0.00 0.00 83 1011.4
20260906144247 28 145 6.4 9.7 0.00 0.00 0.00 83 1011.4
20260906143246 28 139 4.8 9.7 0.00 0.00 0.00 84 1011.4
20260906142245 28 136 8.0 12.9 0.00 0.00 0.00 84 1011.4
20260906141246 28 121 9.7 11.3 0.00 0.00 0.00 84 1011.4
20260906140246 -17 0.0 0.0 0.00 0.00 0.00
20260906135245 -17 0.0 0.0 0.00 0.00 0.00
20260906133745 -17 0.0 0.0 0.00 0.00 0.00
20260906132745 -17 0.0 0.0 0.00 0.00 0.00
20260906131405 -17 0.0 0.0 0.00 0.00 0.00
20260906130345 -17 0.0 0.0 0.00 0.00 0.00
20260906125145 28 155 8.0 11.3 0.00 0.00 0.00 84 1010.2
20260906124206 28 151 6.4 8.0 0.00 0.00 0.00 85 1010.1
20260906123206 28 164 6.4 9.7 0.00 0.00 0.00 84 1010.1
20260906122145 28 133 1.6 3.2 0.00 0.00 0.00 84 1010.1
20260906121145 28 144 6.4 9.7 0.00 0.00 0.00 85 1010.1
20260906120146 28 155 9.7 12.9 0.00 0.00 0.00 84 1010.1
20260906115205 28 171 8.0 9.7 0.00 0.00 0.00 84 1010.1
20260906114206 28 133 4.8 6.4 0.00 0.00 0.00 83 1010.2
20260906113145 28 133 9.7 11.3 0.00 0.00 0.00 83 1010.2
20260906112146 28 163 9.7 11.3 0.00 0.00 0.00 83 1010.2
20260906111146 28 155 11.3 14.5 0.00 0.00 0.00 84 1010.1
20260906110145 28 142 6.4 11.3 0.00 0.00 0.00 84 1010.2
20260906105145 28 134 8.0 14.5 0.00 0.00 0.00 84 1010.2
20260906104145 28 124 8.0 12.9 0.00 0.00 0.00 84 1010.1
20260906103146 28 146 6.4 8.0 0.00 0.00 0.00 83 1010.0
20260906102205 28 142 3.2 8.0 0.00 0.00 0.00 83 1010.1
20260906101145 28 132 9.7 12.9 0.00 0.00 0.00 83 1010.1
20260906100146 28 140 6.4 8.0 0.00 0.00 0.00 83 1009.9
20260906095145 28 143 6.4 11.3 0.00 0.00 0.00 83 1009.9
20260906094227 29 142 4.8 9.7 0.00 0.00 0.00 83 1010.1
20260906093145 29 122 8.0 12.9 0.00 0.00 0.00 82 1010.2
20260906092145 29 139 8.0 12.9 0.00 0.00 0.00 82 1010.2
20260906091146 29 142 4.8 9.7 0.00 0.00 0.00 81 1010.2
20260906090146 29 139 8.0 14.5 0.00 0.00 0.00 81 1010.3
20260906085146 29 138 4.8 8.0 0.00 0.00 0.00 80 1010.4
20260906084145 30 113 8.0 12.9 0.00 0.00 0.00 80 1010.5
20260906083145 30 127 8.0 12.9 0.00 0.00 0.00 78 1010.6
20260906082145 30 120 9.7 14.5 0.00 0.00 0.00 76 1010.6
20260906081145 31 109 6.4 9.7 0.00 0.00 0.00 71 1010.6
20260906080207 31 87 0.0 3.2 0.00 0.00 0.00 70 1010.6
20260906075145 31 132 3.2 3.2 0.00 0.00 0.00 72 1010.6
20260906074146 31 159 4.8 6.4 0.00 0.00 0.00 70 1010.7
20260906073146 32 139 1.6 6.4 0.00 0.00 0.00 63 1010.6
20260906072145 32 179 4.8 9.7 0.00 0.00 0.00 60 1010.6
20260906071145 32 230 8.0 14.5 0.00 0.00 0.00 61 1010.6
20260906070206 32 243 8.0 12.9 0.00 0.00 0.00 61 1010.5
20260906065206 32 231 4.8 12.9 0.00 0.00 0.00 60 1010.5
20260906064146 32 236 11.3 14.5 0.00 0.00 0.00 59 1010.5
20260906063146 32 208 9.7 19.3 0.00 0.00 0.00 59 1010.4
20260906062145 32 215 9.7 14.5 0.00 0.00 0.00 60 1010.4
20260906061145 31 228 8.0 14.5 0.00 0.00 0.00 61 1010.4
20260906060145 30 159 8.0 8.0 0.00 0.00 0.00 74 1010.4
20260906055226 30 177 11.3 16.1 0.00 0.00 0.00 75 1010.4
20260906054146 30 163 14.5 19.3 0.00 0.00 0.00 76 1010.6
20260906053145 30 153 9.7 16.1 0.00 0.00 0.00 74 1010.7
20260906052146 30 161 12.9 19.3 0.00 0.00 0.00 75 1010.7
20260906051146 30 169 8.0 12.9 0.00 0.00 0.00 74 1010.8
20260906050146 30 174 11.3 14.5 0.00 0.00 0.00 75 1010.8
20260906045146 30 174 16.1 19.3 0.00 0.00 0.00 74 1011.1
20260906044145 31 166 9.7 17.7 0.00 0.00 0.00 71 1011.2
20260906043206 31 142 11.3 17.7 0.00 0.00 0.00 67 1011.3
20260906042146 33 174 11.3 17.7 0.00 0.00 0.00 61 1011.2
20260906041146 34 140 12.9 19.3 0.00 0.00 0.00 56 1011.2
20260906040206 35 179 12.9 19.3 0.00 0.00 0.00 50 1011.1
20260906035145 35 148 9.7 12.9 0.00 0.00 0.00 50 1011.0
20260906034146 36 183 9.7 11.3 0.00 0.00 0.00 47 1010.9
20260906033146 36 197 3.2 4.8 0.00 0.00 0.00 41 1010.6
20260906032145 36 241 3.2 8.0 0.00 0.00 0.00 41 1010.1
20260906031145 36 231 3.2 6.4 0.00 0.00 0.00 42 1009.7
20260906030145 36 230 11.3 17.7 0.00 0.00 0.00 43 1009.4
20260906025145 36 253 4.8 9.7 0.00 0.00 0.00 44 1009.2
20260906024146 36 247 6.4 9.7 0.00 0.00 0.00 45 1009.2
20260906023146 37 235 4.8 6.4 0.00 0.00 0.00 45 1009.0
20260906022146 37 246 8.0 14.5 0.00 0.00 0.00 44 1008.8
20260906021145 37 244 4.8 14.5 0.00 0.00 0.00 45 1008.9
20260906020145 37 261 8.0 17.7 0.00 0.00 0.00 44 1008.7
20260906015206 37 236 11.3 16.1 0.00 0.00 0.00 44 1008.6
20260906014145 37 248 9.7 12.9 0.00 0.00 0.00 43 1008.5
20260906013145 38 243 11.3 16.1 0.00 0.00 0.00 41 1008.3
20260906012145 38 290 11.3 17.7 0.00 0.00 0.00 38 1008.3
20260906011145 38 302 9.7 14.5 0.00 0.00 0.00 37 1008.1
20260906010227 38 281 8.0 16.1 0.00 0.00 0.00 38 1008.0
20260906005146 39 338 8.0 14.5 0.00 0.00 0.00 37 1008.1
20260906004145 39 300 8.0 8.0 0.00 0.00 0.00 38 1008.1
20260906003146 39 300 11.3 17.7 0.00 0.00 0.00 38 1008.3
20260906002145 39 314 12.9 16.1 0.00 0.00 0.00 38 1008.3
20260906001146 40 291 14.5 17.7 0.00 0.00 0.00 38 1008.3
20260906000146 39 297 8.0 14.5 0.00 0.00 0.00 39 1008.2
20260905235145 39 287 6.4 12.9 0.00 0.00 0.00 39 1008.0
20260905234145 39 293 11.3 12.9 0.00 0.00 0.00 40 1007.8
20260905233146 39 328 8.0 9.7 0.00 0.00 0.00 39 1007.9
20260905232146 39 273 8.0 19.3 0.00 0.00 0.00 41 1008.2
20260905231145 39 297 8.0 9.7 0.00 0.00 0.00 40 1008.3
20260905230205 39 300 11.3 16.1 0.00 0.00 0.00 41 1008.3
20260905225145 39 291 12.9 17.7 0.00 0.00 0.00 41 1008.3
20260905224145 39 270 14.5 22.5 0.00 0.00 0.00 41 1008.4
20260905223206 39 304 12.9 20.9 0.00 0.00 0.00 41 1008.5
20260905222147 39 268 6.4 14.5 0.00 0.00 0.00 41 1008.6
20260905221145 39 283 11.3 14.5 0.00 0.00 0.00 41 1008.7